User: anonymous   Login
Location: Mahannah Oil Field
(37.4664°N, 96.6003°W)
Time: 17:58:42
(UTC+00:00)
Language:

deb Explorer IX - Orbit

View from above orbital plane
View from above orbital plane
View from above satellite
View from above satellite

Ground track
Ground track

The orbit data is extracted from the following two-line orbital elements,

1 00085U 61004C   21206.19135811  .00004501  00000-0  96024-3 0  9998
2 00085  38.7692 124.2946 0384173 305.1614  51.3708 14.21925015988418
Epoch (UTC): 25 July 2021 04:35:33
Eccentricity: 0.0384173
inclination: 38.7692°
perigee height: 542 km
apogee height: 1095 km
right ascension of ascending node: 124.2946°
argument of perigee: 305.1614°
revolutions per day: 14.21925015
mean anomaly at epoch: 51.3708°
orbit number at epoch: 98841

The dashed part of the orbit path shows where the satellite is in the earth's shadow,  

DLR